QPF
0.02 0.02 0.01 0.01 0.00 0.00 0.00 0.00 0.00 0.01 0.02 0.02 0.01 0.00 0.00 0.01 0.02 0.01 0.00 0.01 0.01 0.00 0.01 0.04 0.02 0.00 0.00 0.00 0.00 0.00 0.00 0.01 0.01 0.03 0.02 0.01 0.00 0.00 0.00 0.00 0.00 0.00 0.00 0.00 0.00 0.00 0.00 0.00 0.00 0.00 0.00 0.00 0.00 0.00
0.02 0.02 0.01 0.01 0.00 0.00 0.00 0.00 0.00 0.01 0.02 0.01 0.01 0.00 0.01 0.00 0.00 0.00 0.00 0.01 0.01 0.00 0.00 0.01 0.01 0.00 0.00 0.00 0.00 0.00 0.00 0.00 0.00 0.01 0.01 0.01 0.00 0.00 0.00 0.00 0.00 0.00 0.00 0.00 0.00 0.00 0.00 0.00 0.00 0.00 0.00 0.00 0.00 0.00
0.01 0.01 0.00 0.00 0.00 0.00 0.00 0.00 0.00 0.01 0.02 0.01 0.01 0.01 0.01 0.00 0.00 0.00 0.00 0.01 0.01 0.01 0.00 0.01 0.01 0.01 0.00 0.00 0.00 0.01 0.00 0.01 0.00 0.00 0.01 0.00 0.00 0.00 0.00 0.00 0.00 0.00 0.00 0.00 0.00 0.00 0.00 0.00 0.00 0.00 0.00 0.00 0.00 0.00
0.01 0.00 0.00 0.00 0.01 0.00 0.01 0.01 0.01 0.01 0.02 0.02 0.01 0.01 0.01 0.00 0.00 0.00 0.00 0.01 0.01 0.00 0.00 0.00 0.01 0.01 0.03 0.01 0.00 0.01 0.01 0.01 0.03 0.02 0.02 0.00 0.00 0.00 0.00 0.00 0.00 0.00 0.00 0.00 0.00 0.00 0.00 0.00 0.00 0.00 0.00 0.00 0.00 0.00
0.01 0.01 0.01 0.00 0.00 0.00 0.01 0.01 0.01 0.01 0.01 0.01 0.01 0.01 0.00 0.00 0.01 0.01 0.01 0.01 0.00 0.01 0.01 0.01 0.01 0.01 0.05 0.02 0.01 0.01 0.01 0.01 0.02 0.03 0.01 0.00 0.00 0.00 0.00 0.00 0.00 0.00 0.00 0.00 0.00 0.00 0.00 0.00 0.00 0.00 0.00 0.00 0.00 0.00
0.01 0.00 0.00 0.00 0.00 0.00 0.00 0.01 0.01 0.00 0.00 0.00 0.01 0.01 0.01 0.02 0.02 0.02 0.01 0.00 0.00 0.01 0.03 0.01 0.01 0.01 0.05 0.06 0.05 0.04 0.05 0.10 0.04 0.02 0.00 0.00 0.00 0.00 0.00 0.00 0.00 0.00 0.00 0.00 0.00 0.00 0.00 0.00 0.00 0.00 0.00 0.00 0.00 0.00
0.00 0.00 0.00 0.00 0.00 0.00 0.01 0.00 0.00 0.00 0.00 0.00 0.02 0.01 0.01 0.02 0.02 0.02 0.01 0.00 0.00 0.01 0.03 0.00 0.01 0.02 0.02 0.05 0.06 0.04 0.08 0.07 0.05 0.02 0.01 0.00 0.00 0.00 0.00 0.00 0.00 0.00 0.00 0.00 0.00 0.00 0.00 0.00 0.00 0.00 0.00 0.00 0.00 0.00
0.00 0.00 0.00 0.00 0.00 0.00 0.00 0.00 0.00 0.00 0.00 0.00 0.01 0.01 0.00 0.03 0.04 0.02 0.01 0.01 0.00 0.02 0.03 0.00 0.00 0.01 0.01 0.01 0.03 0.02 0.03 0.04 0.03 0.01 0.01 0.01 0.00 0.00 0.00 0.00 0.00 0.00 0.00 0.00 0.00 0.00 0.00 0.00 0.00 0.00 0.00 0.00 0.00 0.00
0.00 0.00 0.00 0.00 0.00 0.00 0.00 0.00 0.00 0.00 0.00 0.00 0.00 0.01 0.01 0.03 0.05 0.02 0.00 0.00 0.00 0.01 0.01 0.00 0.00 0.00 0.00 0.00 0.00 0.00 0.01 0.02 0.00 0.01 0.00 0.01 0.00 0.00 0.00 0.00 0.00 0.00 0.00 0.00 0.00 0.00 0.00 0.00 0.00 0.00 0.00 0.00 0.00 0.00
0.00 0.00 0.00 0.00 0.00 0.00 0.00 0.00 0.00 0.00 0.00 0.00 0.01 0.04 0.03 0.05 0.05 0.01 0.02 0.01 0.00 0.00 0.00 0.00 0.00 0.00 0.00 0.00 0.00 0.00 0.00 0.00 0.00 0.00 0.00 0.00 0.00 0.00 0.00 0.00 0.00 0.00 0.00 0.00 0.00 0.00 0.00 0.00 0.00 0.00 0.00 0.00 0.00 0.00
0.00 0.00 0.00 0.00 0.00 0.00 0.00 0.00 0.00 0.00 0.01 0.03 0.02 0.01 0.01 0.02 0.02 0.01 0.01 0.00 0.00 0.00 0.00 0.00 0.00 0.00 0.00 0.00 0.00 0.00 0.01 0.01 0.01 0.00 0.00 0.00 0.00 0.00 0.00 0.01 0.00 0.00 0.00 0.00 0.00 0.00 0.00 0.00 0.00 0.00 0.00 0.00 0.00 0.00
0.00 0.00 0.00 0.00 0.00 0.00 0.00 0.00 0.00 0.01 0.02 0.03 0.00 0.00 0.00 0.00 0.00 0.00 0.00 0.00 0.00 0.00 0.00 0.00 0.00 0.00 0.00 0.00 0.00 0.01 0.02 0.01 0.01 0.00 0.02 0.01 0.01 0.02 0.02 0.01 0.01 0.00 0.00 0.00 0.00 0.00 0.00 0.00 0.00 0.00 0.00 0.00 0.00 0.00
0.00 0.00 0.00 0.00 0.00 0.00 0.00 0.00 0.00 0.01 0.00 0.00 0.00 0.00 0.00 0.00 0.00 0.00 0.00 0.00 0.00 0.00 0.00 0.00 0.00 0.00 0.00 0.00 0.01 0.01 0.01 0.00 0.00 0.00 0.00 0.00 0.00 0.01 0.01 0.00 0.00 0.00 0.00 0.00 0.00 0.00 0.00 0.00 0.00 0.00 0.00 0.00 0.00 0.00
0.00 0.00 0.00 0.00 0.00 0.00 0.00 0.00 0.00 0.00 0.00 0.00 0.00 0.00 0.00 0.00 0.00 0.00 0.00 0.00 0.00 0.00 0.00 0.00 0.00 0.00 0.00 0.00 0.00 0.00 0.00 0.00 0.00 0.00 0.00 0.00 0.00 0.00 0.00 0.00 0.00 0.00 0.00 0.00 0.00 0.00 0.00 0.00 0.00 0.00 0.00 0.00 0.00 0.00
0.00 0.00 0.00 0.00 0.00 0.00 0.00 0.00 0.00 0.00 0.00 0.00 0.00 0.00 0.00 0.00 0.00 0.00 0.00 0.00 0.00 0.00 0.00 0.00 0.00 0.00 0.00 0.00 0.00 0.00 0.00 0.00 0.00 0.00 0.00 0.00 0.00 0.00 0.00 0.00 0.00 0.00 0.00 0.00 0.00 0.00 0.00 0.00 0.00 0.00 0.00 0.00 0.00 0.00
0.00 0.00 0.00 0.00 0.00 0.00 0.00 0.00 0.00 0.00 0.00 0.00 0.00 0.00 0.00 0.00 0.00 0.00 0.00 0.00 0.00 0.00 0.00 0.00 0.00 0.00 0.00 0.00 0.00 0.00 0.00 0.00 0.00 0.00 0.00 0.00 0.00 0.00 0.00 0.00 0.00 0.00 0.00 0.00 0.00 0.00 0.00 0.00 0.00 0.00 0.00 0.00 0.00 0.00
0.00 0.00 0.00 0.00 0.00 0.00 0.00 0.00 0.00 0.00 0.00 0.00 0.00 0.00 0.00 0.00 0.00 0.00 0.00 0.00 0.00 0.00 0.00 0.00 0.00 0.00 0.00 0.00 0.00 0.00 0.00 0.00 0.00 0.00 0.00 0.00 0.00 0.00 0.00 0.00 0.00 0.00 0.00 0.00 0.00 0.00 0.00 0.00 0.00 0.00 0.00 0.00 0.00 0.00
0.00 0.00 0.00 0.00 0.00 0.00 0.00 0.00 0.00 0.00 0.00 0.00 0.00 0.00 0.00 0.00 0.00 0.00 0.00 0.00 0.00 0.00 0.00 0.00 0.00 0.00 0.00 0.00 0.00 0.00 0.00 0.00 0.00 0.00 0.00 0.00 0.00 0.00 0.00 0.00 0.00 0.00 0.00 0.00 0.00 0.00 0.00 0.00 0.00 0.00 0.00 0.00 0.00 0.00
0.00 0.00 0.00 0.00 0.00 0.00 0.00 0.00 0.00 0.00 0.00 0.00 0.00 0.00 0.00 0.00 0.00 0.00 0.00 0.00 0.00 0.00 0.00 0.00 0.00 0.00 0.00 0.00 0.00 0.00 0.00 0.00 0.00 0.00 0.00 0.00 0.00 0.00 0.00 0.00 0.00 0.00 0.00 0.00 0.00 0.00 0.00 0.00 0.00 0.00 0.00 0.00 0.00 0.00
0.00 0.00 0.00 0.00 0.00 0.00 0.00 0.00 0.00 0.00 0.00 0.00 0.00 0.00 0.00 0.00 0.00 0.00 0.00 0.00 0.00 0.00 0.00 0.00 0.00 0.00 0.00 0.00 0.00 0.00 0.00 0.00 0.00 0.00 0.00 0.00 0.00 0.00 0.00 0.00 0.00 0.00 0.00 0.00 0.00 0.00 0.00 0.00 0.00 0.00 0.00 0.00 0.00 0.00
0.00 0.00 0.00 0.00 0.00 0.00 0.00 0.00 0.00 0.00 0.00 0.00 0.00 0.00 0.00 0.00 0.00 0.00 0.00 0.00 0.00 0.00 0.00 0.00 0.00 0.00 0.00 0.00 0.00 0.00 0.00 0.00 0.00 0.00 0.00 0.00 0.00 0.00 0.00 0.00 0.00 0.00 0.00 0.00 0.00 0.00 0.00 0.00 0.00 0.00 0.00 0.00 0.00 0.00
0.00 0.00 0.00 0.00 0.00 0.00 0.00 0.00 0.00 0.00 0.00 0.00 0.00 0.00 0.00 0.00 0.00 0.00 0.00 0.00 0.00 0.00 0.00 0.00 0.00 0.00 0.00 0.00 0.00 0.00 0.00 0.00 0.00 0.00 0.00 0.00 0.00 0.00 0.00 0.00 0.00 0.00 0.00 0.00 0.00 0.00 0.00 0.00 0.00 0.00 0.00 0.00 0.00 0.00
0.00 0.00 0.00 0.00 0.00 0.00 0.00 0.00 0.00 0.00 0.00 0.00 0.00 0.00 0.00 0.00 0.00 0.00 0.00 0.00 0.00 0.00 0.00 0.00 0.00 0.00 0.00 0.00 0.00 0.00 0.00 0.00 0.00 0.00 0.00 0.00 0.00 0.00 0.00 0.00 0.00 0.00 0.00 0.00 0.00 0.00 0.00 0.00 0.00 0.00 0.00 0.00 0.00 0.00
0.00 0.00 0.00 0.00 0.00 0.00 0.00 0.00 0.00 0.00 0.00 0.00 0.00 0.00 0.00 0.00 0.00 0.00 0.00 0.00 0.00 0.00 0.00 0.00 0.00 0.00 0.00 0.00 0.00 0.00 0.00 0.00 0.00 0.00 0.00 0.00 0.00 0.00 0.00 0.00 0.00 0.00 0.00 0.00 0.00 0.00 0.00 0.00 0.00 0.00 0.00 0.00 0.00 0.00
0.00 0.00 0.00 0.00 0.00 0.00 0.00 0.00 0.00 0.00 0.00 0.00 0.00 0.00 0.00 0.00 0.00 0.00 0.00 0.00 0.00 0.00 0.00 0.00 0.00 0.00 0.00 0.00 0.00 0.00 0.00 0.00 0.00 0.00 0.00 0.00 0.00 0.00 0.00 0.00 0.00 0.00 0.00 0.00 0.00 0.00 0.00 0.00 0.00 0.00 0.00 0.00 0.00 0.00
0.00 0.00 0.00 0.00 0.00 0.00 0.00 0.00 0.00 0.00 0.00 0.00 0.00 0.00 0.00 0.00 0.00 0.00 0.00 0.00 0.00 0.00 0.00 0.00 0.00 0.00 0.00 0.00 0.00 0.00 0.00 0.00 0.00 0.00 0.00 0.00 0.00 0.00 0.00 0.00 0.00 0.00 0.00 0.00 0.00 0.00 0.00 0.00 0.00 0.00 0.00 0.00 0.00 0.00
0.00 0.00 0.00 0.00 0.00 0.00 0.00 0.00 0.00 0.00 0.00 0.00 0.00 0.00 0.00 0.00 0.00 0.00 0.00 0.00 0.00 0.00 0.00 0.00 0.00 0.00 0.00 0.00 0.00 0.00 0.00 0.00 0.00 0.00 0.00 0.00 0.00 0.00 0.00 0.00 0.00 0.00 0.00 0.00 0.00 0.00 0.00 0.00 0.00 0.00 0.00 0.00 0.00 0.00
0.00 0.00 0.00 0.00 0.00 0.00 0.00 0.00 0.00 0.00 0.00 0.00 0.00 0.00 0.00 0.00 0.00 0.00 0.00 0.00 0.00 0.00 0.00 0.00 0.00 0.00 0.00 0.00 0.00 0.00 0.00 0.00 0.00 0.00 0.00 0.00 0.00 0.00 0.00 0.00 0.00 0.00 0.00 0.00 0.00 0.00 0.00 0.00 0.00 0.00 0.00 0.00 0.00 0.00
0.00 0.00 0.00 0.00 0.00 0.00 0.00 0.00 0.00 0.00 0.00 0.00 0.00 0.00 0.00 0.00 0.00 0.00 0.00 0.00 0.00 0.00 0.00 0.00 0.00 0.00 0.00 0.00 0.00 0.00 0.00 0.00 0.00 0.00 0.00 0.00 0.00 0.00 0.00 0.00 0.00 0.00 0.00 0.00 0.00 0.00 0.00 0.00 0.00 0.00 0.00 0.00 0.00 0.00
0.00 0.00 0.00 0.00 0.00 0.00 0.00 0.00 0.00 0.00 0.00 0.00 0.00 0.00 0.00 0.00 0.00 0.00 0.00 0.00 0.00 0.00 0.00 0.00 0.00 0.00 0.00 0.00 0.00 0.00 0.00 0.00 0.00 0.00 0.00 0.00 0.00 0.00 0.00 0.00 0.00 0.00 0.00 0.00 0.00 0.00 0.00 0.00 0.00 0.00 0.00 0.00 0.00 0.00
0.00 0.00 0.00 0.00 0.00 0.00 0.00 0.00 0.00 0.00 0.00 0.00 0.00 0.00 0.00 0.00 0.00 0.00 0.00 0.00 0.00 0.00 0.00 0.00 0.00 0.00 0.00 0.00 0.00 0.00 0.00 0.00 0.00 0.00 0.00 0.00 0.00 0.00 0.00 0.00 0.00 0.00 0.00 0.00 0.00 0.00 0.00 0.00 0.00 0.00 0.00 0.00 0.00 0.00
0.00 0.00 0.00 0.00 0.00 0.00 0.00 0.00 0.00 0.00 0.00 0.00 0.00 0.00 0.00 0.00 0.00 0.00 0.00 0.00 0.00 0.00 0.00 0.00 0.00 0.00 0.00 0.00 0.00 0.00 0.00 0.00 0.00 0.00 0.00 0.00 0.00 0.00 0.00 0.00 0.00 0.00 0.00 0.00 0.00 0.00 0.00 0.00 0.00 0.00 0.00 0.00 0.00 0.00
0.00 0.00 0.00 0.00 0.00 0.00 0.00 0.00 0.00 0.00 0.00 0.00 0.00 0.00 0.00 0.00 0.00 0.00 0.00 0.00 0.00 0.00 0.00 0.00 0.00 0.00 0.00 0.00 0.00 0.00 0.00 0.00 0.00 0.00 0.00 0.00 0.00 0.00 0.00 0.00 0.00 0.00 0.00 0.00 0.00 0.00 0.00 0.00 0.00 0.00 0.00 0.00 0.00 0.00
MSLP
981.94 983.67 985.41 987.24 989.08 990.79 992.35 993.79 995.10 996.38 997.59 998.82 999.86 1000.96 1001.80 1002.81 1003.59 1004.45 1005.47 1006.16 1006.91 1006.05 1004.78 1004.03 1003.68 1003.35 1003.59 1003.52 1003.73 1004.93 1005.87 1006.75 1007.84 1009.27 1010.39 1010.77 1011.33 1009.98 1010.16 1010.42 1011.21 1011.75 1013.52 1014.75 1015.10 1014.53 1012.70 1010.29 1010.15 1010.47 1011.19 1011.84 1012.17 1012.46
984.33 985.66 987.05 988.56 990.05 991.50 992.80 994.01 995.21 996.30 997.48 998.61 999.48 1000.23 1001.55 1002.20 1003.37 1004.73 1005.48 1006.17 1006.73 1006.97 1005.40 1004.72 1004.05 1003.57 1003.35 1002.86 1003.33 1004.11 1004.27 1005.37 1006.62 1008.32 1009.97 1010.96 1011.84 1010.45 1009.96 1010.76 1010.43 1010.70 1010.51 1011.94 1012.75 1012.39 1011.26 1010.52 1010.34 1010.71 1011.22 1011.98 1012.81 1012.97
986.27 987.35 988.49 989.65 990.90 992.10 993.24 994.37 995.39 996.39 997.33 998.35 999.32 1000.30 1001.16 1002.29 1003.37 1004.45 1005.17 1006.08 1007.21 1006.94 1005.35 1004.29 1003.29 1002.16 1002.03 1001.92 1001.69 1002.78 1004.34 1004.23 1005.27 1005.82 1008.38 1010.35 1011.38 1009.73 1010.01 1009.82 1009.79 1009.45 1009.29 1010.18 1011.63 1012.33 1011.93 1011.46 1011.51 1011.66 1012.14 1012.88 1013.58 1013.72
987.87 988.71 989.61 990.66 991.72 992.79 993.82 994.77 995.61 996.13 996.67 997.96 999.04 1000.21 1001.37 1002.57 1003.71 1004.67 1005.33 1005.90 1007.00 1006.11 1005.45 1003.69 1001.99 1001.64 1000.94 1000.89 1000.80 1000.95 1002.23 1003.62 1004.64 1006.10 1008.23 1009.14 1009.93 1008.67 1009.22 1008.46 1008.72 1008.41 1008.83 1009.94 1011.96 1012.67 1012.70 1012.69 1012.75 1012.98 1013.68 1014.16 1014.54 1014.98
989.24 989.97 990.78 991.62 992.50 993.42 994.41 995.15 995.54 996.31 997.23 998.33 999.50 1000.71 1001.83 1002.98 1004.08 1005.24 1005.75 1006.02 1006.45 1006.83 1006.12 1004.13 1003.38 1001.95 1001.25 1000.91 1000.76 1001.05 1001.91 1003.16 1004.75 1006.96 1007.85 1008.33 1008.23 1008.23 1008.77 1008.70 1008.65 1007.83 1008.00 1009.17 1010.62 1010.72 1011.71 1013.12 1013.75 1014.08 1014.46 1015.23 1015.66 1015.80
990.46 991.13 991.82 992.60 993.36 994.20 994.94 995.66 996.37 997.23 998.20 999.19 1000.22 1001.28 1002.31 1003.27 1004.16 1004.83 1006.31 1006.46 1006.45 1006.93 1006.81 1005.04 1003.10 1002.36 1001.96 1001.26 1001.80 1002.26 1002.56 1003.54 1004.88 1006.30 1007.71 1007.55 1007.37 1008.05 1008.95 1009.33 1008.54 1008.05 1007.80 1007.85 1009.45 1010.67 1011.92 1013.42 1014.40 1014.96 1015.31 1016.18 1016.69 1017.01
991.45 992.08 992.74 993.45 994.19 994.98 995.78 996.51 997.35 998.22 999.06 999.92 1000.73 1001.74 1002.66 1003.52 1004.16 1004.33 1004.68 1004.21 1005.26 1007.18 1007.05 1005.80 1004.12 1003.28 1002.79 1002.54 1003.39 1003.63 1003.81 1005.00 1005.76 1007.12 1007.90 1007.73 1008.11 1008.56 1008.84 1009.14 1008.89 1008.89 1008.83 1009.28 1009.96 1011.20 1013.51 1014.03 1015.19 1015.79 1016.19 1017.06 1017.54 1018.17
992.28 992.94 993.63 994.29 994.95 995.72 996.55 997.40 998.23 998.98 999.70 1000.52 1001.35 1002.22 1003.03 1003.65 1004.50 1004.62 1004.19 1004.31 1005.25 1006.80 1007.29 1006.08 1004.78 1003.81 1002.90 1003.25 1004.47 1004.81 1005.29 1006.66 1007.55 1007.57 1008.86 1009.24 1009.30 1009.04 1009.67 1009.11 1009.14 1009.42 1009.87 1010.70 1011.38 1011.39 1012.99 1014.59 1015.70 1016.58 1017.12 1017.67 1018.35 1019.20
992.96 993.63 994.31 994.96 995.63 996.32 997.07 997.95 998.77 999.43 1000.09 1000.87 1001.64 1002.66 1003.64 1004.06 1003.65 1003.55 1003.83 1004.73 1004.51 1005.82 1006.51 1005.56 1005.14 1004.09 1004.22 1004.83 1005.50 1006.38 1006.64 1008.41 1007.98 1008.71 1008.59 1008.81 1009.71 1009.86 1009.61 1009.64 1009.43 1009.70 1010.05 1011.70 1012.54 1013.19 1014.39 1015.31 1016.36 1017.13 1017.72 1018.52 1019.07 1020.09
993.45 994.23 994.80 995.49 996.15 996.84 997.62 998.33 998.97 999.76 1000.50 1001.54 1002.13 1002.01 1002.19 1002.27 1002.56 1002.82 1004.61 1004.63 1004.59 1005.49 1006.35 1005.28 1004.93 1004.92 1005.04 1005.75 1006.63 1007.02 1007.43 1008.36 1008.77 1008.94 1008.85 1009.73 1010.37 1010.46 1009.87 1009.88 1010.10 1010.47 1011.12 1012.01 1013.14 1014.60 1015.23 1016.08 1016.85 1017.64 1018.38 1019.14 1019.87 1020.80
993.73 994.33 994.87 995.58 996.56 997.31 997.94 998.52 999.17 1000.02 1000.68 1001.30 1001.00 1000.61 1001.47 1001.70 1002.16 1003.43 1004.27 1004.65 1005.05 1006.08 1005.69 1004.93 1004.61 1004.75 1005.23 1005.82 1006.97 1007.59 1008.04 1008.70 1009.13 1009.28 1009.48 1010.19 1010.65 1010.68 1010.51 1010.59 1010.85 1011.22 1011.86 1012.47 1013.11 1014.23 1015.08 1015.89 1017.03 1018.09 1019.19 1020.06 1020.90 1021.79
993.79 994.32 994.82 995.28 996.56 997.26 997.99 998.75 999.18 999.50 999.30 998.49 998.71 1000.07 1001.05 1002.06 1002.87 1003.83 1004.79 1005.23 1005.33 1005.63 1005.40 1005.19 1005.03 1004.94 1005.69 1005.70 1006.92 1008.01 1008.60 1008.97 1009.41 1009.11 1009.64 1010.33 1010.41 1010.52 1010.86 1011.20 1011.57 1011.92 1012.43 1013.37 1014.12 1014.96 1015.90 1016.82 1017.78 1018.87 1019.99 1021.05 1021.93 1022.71
994.20 994.64 995.19 995.90 996.62 997.29 997.91 997.83 998.33 998.45 998.43 998.53 999.74 1001.50 1002.41 1003.54 1003.96 1004.40 1005.30 1005.57 1005.74 1005.64 1005.52 1005.40 1005.91 1006.22 1006.46 1006.61 1007.79 1008.46 1009.19 1009.60 1009.39 1010.15 1010.46 1010.70 1010.79 1011.11 1011.45 1011.92 1012.53 1012.98 1013.66 1014.51 1015.35 1016.17 1016.93 1018.09 1019.06 1019.81 1021.06 1022.06 1022.71 1023.52
995.12 995.51 996.05 996.65 997.04 997.55 998.06 998.36 998.69 998.53 998.62 1000.43 1001.96 1003.36 1003.94 1004.58 1005.24 1005.50 1005.68 1006.06 1006.59 1006.35 1005.89 1005.86 1006.27 1006.81 1007.36 1007.75 1008.60 1008.98 1009.66 1009.68 1010.46 1011.21 1011.11 1011.31 1011.47 1011.89 1012.27 1012.87 1013.49 1014.62 1015.29 1015.93 1016.73 1017.52 1018.39 1019.30 1020.40 1021.22 1021.92 1022.72 1023.37 1024.25
996.26 996.51 996.73 997.62 997.76 998.06 998.34 998.60 998.91 998.79 1000.28 1002.45 1003.62 1005.09 1005.50 1005.87 1005.95 1005.90 1005.78 1005.85 1006.08 1005.98 1006.04 1006.30 1006.92 1007.13 1008.12 1008.87 1009.15 1009.57 1010.28 1010.60 1010.79 1011.08 1011.29 1011.56 1012.15 1012.66 1013.29 1014.03 1014.78 1015.59 1016.42 1017.25 1018.04 1018.86 1019.73 1020.46 1021.18 1022.07 1022.79 1023.37 1024.09 1024.92
996.54 996.65 998.49 998.67 998.53 998.73 998.89 998.98 999.68 1000.86 1003.46 1004.88 1005.83 1006.52 1006.74 1006.69 1006.86 1006.87 1006.94 1007.00 1006.90 1006.75 1006.52 1006.61 1007.52 1008.10 1009.05 1009.28 1009.75 1010.22 1010.57 1011.20 1011.58 1011.66 1011.83 1012.27 1012.95 1013.57 1014.27 1015.07 1015.79 1016.55 1017.37 1018.26 1019.08 1019.75 1020.44 1021.14 1021.78 1022.60 1023.45 1024.14 1024.80 1025.42
997.19 999.26 999.19 999.16 998.87 998.97 999.35 999.92 1001.79 1004.11 1005.83 1006.87 1007.83 1007.92 1007.80 1008.05 1008.33 1008.37 1008.19 1007.92 1007.51 1007.31 1007.84 1008.13 1008.67 1009.57 1009.77 1010.30 1011.08 1011.44 1012.00 1012.32 1012.38 1012.53 1012.74 1013.16 1013.82 1014.63 1015.37 1016.13 1016.87 1017.54 1018.31 1018.94 1019.63 1020.39 1021.09 1021.79 1022.53 1023.27 1023.98 1024.67 1025.11 1025.83
999.73 999.67 999.15 998.71 998.35 999.10 1000.95 1002.34 1004.34 1006.28 1007.81 1008.52 1008.79 1008.98 1008.98 1009.18 1009.18 1009.06 1008.83 1008.38 1007.98 1008.21 1008.73 1009.56 1010.02 1011.12 1012.15 1012.54 1012.90 1013.05 1013.19 1013.29 1013.38 1013.60 1013.99 1014.49 1015.06 1015.73 1016.32 1016.98 1017.73 1018.37 1019.06 1019.75 1020.37 1021.09 1021.80 1022.50 1023.17 1023.83 1024.29 1025.01 1025.64 1026.27
1000.86 1000.38 999.74 999.39 999.51 1001.06 1003.84 1005.35 1006.02 1008.04 1009.40 1009.52 1009.66 1009.61 1009.74 1010.25 1010.46 1010.20 1009.77 1009.44 1009.25 1009.24 1010.19 1011.85 1013.18 1014.25 1014.85 1014.88 1014.67 1014.27 1014.21 1014.27 1014.59 1014.97 1015.36 1015.83 1016.25 1016.80 1017.41 1018.05 1018.66 1019.31 1019.95 1020.66 1021.29 1022.08 1022.83 1023.43 1024.14 1024.68 1025.21 1025.76 1026.43 1026.96
1000.68 1000.63 1000.44 1000.20 999.99 1002.83 1005.61 1007.05 1007.35 1008.56 1009.82 1010.47 1010.35 1010.45 1010.68 1011.45 1011.69 1011.63 1011.32 1011.13 1010.82 1011.51 1013.43 1015.14 1016.59 1017.23 1017.00 1016.66 1016.10 1015.52 1015.38 1015.39 1015.55 1016.09 1016.79 1017.28 1017.66 1018.08 1018.71 1019.23 1019.88 1020.45 1021.17 1021.97 1022.74 1023.34 1024.00 1024.71 1025.30 1025.79 1026.27 1026.82 1027.48 1028.04
1001.56 1001.96 1001.65 1001.37 1002.83 1004.82 1007.20 1008.19 1008.77 1009.67 1010.22 1010.66 1010.99 1011.13 1012.19 1012.67 1012.91 1013.03 1013.17 1013.20 1013.32 1015.76 1017.23 1018.19 1018.51 1018.65 1018.38 1017.84 1017.27 1016.89 1016.71 1016.46 1016.69 1017.08 1017.83 1018.62 1019.26 1019.61 1020.24 1020.75 1021.18 1021.83 1022.50 1023.30 1023.99 1024.79 1025.26 1025.91 1026.47 1026.91 1027.32 1027.79 1028.17 1028.40
1003.31 1002.99 1003.56 1003.63 1005.28 1007.12 1008.82 1009.45 1009.67 1010.19 1010.74 1011.30 1011.50 1011.93 1012.65 1013.41 1014.13 1014.82 1015.54 1015.98 1018.21 1019.34 1019.47 1019.80 1020.00 1019.95 1019.67 1019.39 1019.27 1018.90 1018.83 1018.53 1018.66 1019.08 1019.61 1020.05 1020.74 1021.48 1022.10 1022.61 1022.90 1023.52 1024.12 1024.77 1025.33 1025.96 1026.62 1027.18 1027.55 1027.89 1028.11 1028.41 1028.41 1028.65
1003.67 1004.07 1005.57 1006.82 1008.02 1009.27 1010.99 1010.42 1010.75 1011.17 1011.67 1012.27 1012.57 1013.14 1013.77 1014.32 1015.37 1016.09 1018.09 1020.02 1021.31 1021.76 1021.39 1021.50 1021.62 1021.59 1021.52 1021.49 1020.98 1020.86 1020.80 1020.71 1021.01 1021.50 1021.96 1022.43 1022.94 1023.48 1023.87 1024.40 1024.78 1025.15 1025.70 1026.33 1026.76 1027.14 1027.60 1028.01 1028.33 1028.63 1028.83 1028.96 1029.12 1029.31
1004.86 1006.97 1008.78 1010.03 1010.75 1012.12 1012.04 1012.16 1012.00 1012.48 1012.61 1013.14 1013.78 1014.65 1015.15 1015.68 1016.62 1018.50 1020.90 1022.74 1023.59 1023.43 1022.87 1022.91 1022.74 1022.79 1022.93 1022.96 1023.15 1023.30 1023.27 1023.16 1023.24 1023.52 1023.94 1024.20 1024.70 1025.44 1025.82 1026.27 1026.64 1026.94 1027.33 1027.77 1028.16 1028.51 1028.81 1029.07 1029.26 1029.47 1029.62 1029.72 1029.83 1030.00
1008.33 1011.74 1012.15 1012.78 1012.88 1013.49 1014.15 1014.37 1014.43 1014.27 1015.00 1014.99 1015.40 1015.96 1016.32 1016.63 1018.67 1020.93 1022.73 1024.34 1024.90 1024.83 1024.70 1024.55 1024.53 1024.54 1024.79 1025.18 1025.32 1025.30 1025.23 1025.05 1025.14 1025.40 1025.94 1025.97 1026.34 1026.85 1027.41 1027.94 1028.38 1028.74 1028.92 1029.12 1029.60 1029.86 1030.05 1030.12 1030.24 1030.39 1030.51 1030.53 1030.57 1030.49
1012.31 1014.15 1014.51 1014.66 1014.91 1015.06 1015.63 1016.10 1016.02 1016.18 1016.32 1016.88 1017.24 1017.36 1017.68 1019.41 1021.50 1023.43 1024.65 1025.67 1026.10 1026.18 1026.10 1025.92 1025.97 1026.22 1026.51 1026.77 1026.87 1026.91 1026.98 1026.79 1026.74 1026.97 1027.79 1027.74 1027.81 1028.03 1028.70 1029.12 1029.49 1029.98 1030.13 1030.20 1030.54 1030.85 1030.91 1030.94 1031.03 1031.10 1031.13 1031.10 1031.11 1031.05
1015.36 1015.99 1015.78 1015.68 1015.77 1015.92 1016.61 1017.14 1017.48 1018.00 1018.45 1018.94 1019.07 1019.52 1020.43 1022.66 1024.26 1025.50 1026.20 1026.56 1026.96 1027.25 1027.21 1027.21 1027.23 1027.55 1027.95 1028.27 1028.36 1028.38 1028.23 1028.08 1028.20 1028.83 1029.28 1029.40 1029.56 1029.78 1030.09 1030.55 1030.54 1030.91 1030.81 1030.87 1030.93 1031.28 1031.47 1031.34 1031.33 1031.37 1031.41 1031.34 1031.35 1031.30
1016.91 1017.24 1017.47 1017.52 1017.66 1018.01 1018.97 1019.75 1020.23 1020.59 1020.77 1020.75 1021.16 1023.16 1024.41 1025.68 1026.66 1026.95 1027.18 1027.49 1027.71 1027.99 1028.26 1028.49 1028.73 1029.08 1029.48 1029.81 1029.87 1029.73 1029.77 1029.63 1029.82 1030.10 1030.39 1030.67 1030.87 1031.07 1031.14 1031.25 1031.20 1030.56 1030.95 1031.17 1031.25 1030.82 1030.69 1030.75 1030.94 1031.17 1031.40 1031.36 1031.16 1030.39
1018.27 1018.43 1018.55 1019.20 1019.59 1020.43 1021.28 1021.82 1022.34 1022.40 1022.49 1022.49 1024.01 1025.77 1027.01 1028.08 1028.58 1028.40 1028.39 1028.41 1028.57 1028.91 1029.30 1029.80 1030.32 1030.54 1030.93 1031.14 1031.23 1031.24 1031.15 1031.15 1031.26 1031.82 1032.07 1032.52 1032.38 1032.37 1032.18 1032.08 1032.01 1031.89 1031.97 1032.00 1031.11 1030.47 1029.99 1029.91 1029.93 1030.27 1030.71 1030.88 1030.41 1030.04
1019.71 1019.45 1020.31 1021.12 1021.98 1022.83 1023.40 1023.58 1024.15 1024.39 1024.02 1024.65 1025.91 1027.67 1028.71 1029.67 1030.03 1029.83 1029.61 1029.67 1029.95 1030.48 1030.97 1031.30 1031.56 1031.68 1032.30 1032.53 1032.90 1032.76 1032.67 1032.48 1032.65 1032.96 1033.39 1033.69 1033.53 1033.36 1033.15 1033.10 1032.97 1032.65 1032.31 1032.36 1031.69 1031.16 1030.76 1030.63 1030.28 1030.25 1030.68 1030.59 1030.71 1030.60
1020.78 1021.10 1022.07 1022.97 1023.55 1023.95 1024.41 1024.55 1024.79 1025.20 1025.87 1027.05 1027.86 1029.00 1029.98 1030.56 1031.02 1031.16 1031.11 1031.26 1031.50 1031.82 1032.15 1032.75 1032.82 1032.90 1033.07 1033.24 1033.75 1033.60 1033.75 1033.61 1033.36 1033.29 1033.31 1033.42 1033.56 1033.69 1033.79 1033.73 1033.35 1032.98 1032.66 1032.61 1032.17 1031.89 1031.63 1031.57 1031.61 1031.24 1031.01 1030.79 1030.71 1030.70
1022.63 1023.53 1023.70 1024.69 1024.86 1024.53 1024.62 1024.99 1025.62 1026.87 1028.09 1028.95 1030.00 1030.15 1030.88 1031.66 1032.37 1032.53 1032.71 1032.71 1032.86 1033.23 1033.50 1033.50 1033.62 1033.67 1033.48 1033.52 1033.72 1033.93 1034.08 1034.10 1033.89 1033.61 1033.46 1033.48 1033.71 1033.82 1033.61 1033.24 1033.18 1033.17 1033.35 1032.87 1032.53 1032.31 1032.19 1032.43 1032.16 1031.90 1031.61 1031.25 1031.00 1030.89
1024.28 1024.50 1024.92 1025.48 1025.74 1025.81 1025.61 1025.69 1026.63 1028.19 1029.15 1030.17 1030.72 1031.17 1031.84 1032.43 1033.03 1033.21 1033.22 1033.39 1034.09 1034.29 1034.43 1034.30 1033.83 1033.46 1033.53 1033.97 1034.30 1034.44 1034.12 1034.27 1033.87 1033.42 1033.06 1032.85 1032.94 1032.95 1033.16 1033.26 1033.15 1033.09 1033.06 1032.80 1032.65 1032.60 1032.64 1032.83 1032.65 1032.38 1032.08 1031.83 1031.49 1031.22
Thickness
5392 5387 5384 5380 5376 5371 5366 5361 5356 5352 5348 5345 5351 5362 5380 5397 5417 5433 5448 5459 5468 5495 5518 5537 5549 5565 5573 5581 5582 5582 5579 5578 5573 5561 5565 5568 5559 5581 5581 5593 5584 5585 5559 5538 5537 5532 5563 5606 5607 5592 5588 5588 5585 5584
5381 5377 5375 5372 5368 5363 5359 5355 5350 5346 5342 5342 5351 5365 5380 5398 5416 5429 5441 5455 5465 5478 5509 5526 5541 5554 5566 5581 5584 5580 5594 5588 5584 5573 5569 5557 5554 5557 5578 5570 5596 5582 5591 5574 5572 5568 5589 5595 5598 5593 5590 5584 5578 5575
5373 5370 5367 5365 5361 5358 5353 5348 5342 5338 5339 5348 5361 5370 5385 5400 5415 5430 5444 5453 5459 5480 5510 5527 5545 5564 5575 5583 5595 5577 5575 5592 5592 5596 5580 5567 5559 5568 5566 5564 5591 5600 5601 5590 5581 5577 5578 5582 5583 5582 5577 5566 5560 5561
5364 5362 5361 5359 5356 5352 5347 5342 5341 5348 5358 5364 5371 5376 5386 5397 5411 5427 5440 5453 5460 5488 5498 5525 5555 5565 5579 5587 5595 5601 5597 5595 5592 5583 5561 5559 5560 5587 5561 5591 5588 5595 5597 5586 5565 5566 5568 5568 5567 5562 5553 5548 5543 5539
5358 5357 5355 5354 5352 5349 5347 5349 5357 5362 5367 5370 5371 5374 5386 5401 5411 5420 5437 5453 5467 5485 5496 5527 5540 5560 5572 5582 5591 5596 5597 5593 5582 5566 5545 5562 5572 5575 5570 5573 5567 5597 5595 5578 5563 5579 5570 5556 5547 5545 5541 5532 5528 5524
5349 5350 5350 5349 5349 5350 5352 5357 5360 5363 5366 5367 5369 5376 5391 5404 5416 5429 5436 5455 5470 5481 5495 5512 5538 5553 5562 5576 5579 5580 5585 5581 5576 5568 5547 5569 5579 5566 5555 5542 5583 5587 5591 5593 5580 5568 5554 5539 5531 5527 5522 5514 5509 5504
5344 5344 5345 5347 5349 5352 5353 5356 5359 5361 5362 5364 5370 5383 5396 5410 5426 5444 5459 5481 5484 5477 5482 5500 5521 5543 5552 5560 5556 5565 5568 5559 5564 5552 5547 5560 5561 5553 5538 5551 5574 5571 5571 5568 5563 5554 5533 5529 5514 5511 5506 5497 5492 5484
5352 5346 5346 5347 5349 5350 5351 5352 5354 5357 5360 5366 5377 5391 5403 5417 5431 5451 5473 5483 5485 5480 5485 5497 5522 5529 5547 5536 5542 5546 5546 5537 5532 5534 5527 5529 5540 5531 5539 5559 5558 5557 5556 5550 5542 5544 5529 5514 5503 5494 5488 5482 5475 5464
5367 5357 5352 5348 5348 5350 5353 5354 5357 5362 5369 5378 5390 5402 5414 5431 5451 5466 5476 5477 5491 5490 5486 5489 5512 5531 5530 5529 5524 5521 5523 5515 5517 5516 5524 5536 5528 5533 5544 5546 5547 5549 5546 5525 5521 5516 5505 5496 5487 5480 5474 5464 5457 5447
5391 5378 5370 5363 5360 5359 5360 5364 5371 5378 5386 5397 5412 5432 5445 5460 5467 5477 5476 5485 5492 5485 5481 5499 5509 5520 5524 5506 5512 5510 5509 5510 5507 5520 5525 5509 5509 5518 5523 5526 5528 5527 5522 5515 5503 5491 5488 5481 5474 5466 5457 5448 5440 5428
5419 5411 5405 5398 5389 5386 5387 5391 5397 5404 5413 5422 5441 5458 5461 5468 5477 5475 5474 5477 5483 5476 5487 5505 5508 5523 5518 5511 5508 5499 5505 5502 5507 5515 5509 5507 5505 5507 5514 5514 5515 5514 5508 5502 5497 5488 5481 5474 5462 5449 5438 5427 5416 5404
5447 5440 5436 5434 5425 5422 5422 5423 5429 5437 5447 5464 5473 5474 5477 5476 5474 5478 5474 5471 5483 5490 5492 5502 5507 5515 5503 5515 5505 5499 5501 5487 5497 5503 5504 5501 5499 5504 5502 5501 5500 5497 5494 5487 5481 5472 5462 5453 5444 5430 5417 5404 5393 5385
5468 5462 5459 5456 5452 5448 5448 5456 5461 5471 5478 5483 5478 5471 5479 5464 5475 5472 5477 5483 5485 5483 5490 5492 5493 5491 5493 5498 5488 5487 5488 5475 5479 5469 5501 5489 5490 5490 5489 5485 5482 5478 5472 5464 5457 5449 5440 5429 5418 5408 5394 5383 5375 5365
5475 5475 5473 5468 5469 5470 5468 5471 5474 5482 5490 5477 5476 5470 5470 5473 5466 5468 5474 5475 5467 5472 5484 5488 5488 5488 5479 5489 5477 5488 5476 5478 5478 5469 5478 5474 5476 5474 5474 5469 5461 5450 5442 5438 5431 5423 5413 5403 5392 5383 5374 5364 5356 5347
5477 5478 5479 5477 5479 5479 5480 5483 5486 5492 5483 5468 5465 5458 5456 5454 5458 5463 5466 5472 5472 5476 5473 5478 5479 5485 5477 5476 5471 5474 5477 5475 5471 5474 5469 5463 5461 5459 5453 5445 5438 5430 5424 5417 5410 5400 5389 5381 5373 5363 5355 5347 5338 5326
5484 5486 5474 5476 5480 5482 5484 5488 5485 5478 5457 5452 5447 5453 5450 5458 5459 5458 5460 5464 5465 5467 5473 5478 5475 5475 5470 5470 5477 5471 5473 5468 5462 5454 5453 5453 5447 5441 5437 5429 5423 5416 5407 5397 5388 5380 5371 5363 5355 5346 5337 5327 5316 5307
5485 5471 5475 5477 5483 5484 5485 5483 5469 5452 5443 5440 5435 5434 5441 5443 5444 5446 5448 5454 5457 5464 5469 5461 5475 5465 5459 5465 5458 5450 5446 5442 5439 5438 5439 5437 5431 5424 5417 5410 5402 5395 5388 5380 5372 5364 5355 5347 5337 5329 5320 5310 5302 5291
5468 5471 5477 5484 5489 5487 5473 5463 5447 5435 5430 5424 5427 5426 5429 5429 5435 5439 5441 5447 5454 5453 5454 5457 5451 5440 5433 5443 5437 5429 5424 5422 5424 5424 5421 5416 5411 5405 5401 5393 5385 5379 5371 5363 5356 5347 5337 5328 5319 5310 5303 5292 5283 5274
5459 5466 5473 5479 5480 5469 5448 5439 5437 5423 5414 5415 5416 5418 5420 5418 5418 5423 5430 5434 5439 5440 5437 5424 5411 5408 5404 5404 5407 5412 5411 5410 5409 5404 5400 5396 5392 5386 5379 5373 5366 5358 5351 5342 5334 5323 5312 5303 5293 5286 5278 5270 5260 5250
5460 5462 5465 5470 5475 5452 5434 5425 5424 5419 5412 5407 5409 5412 5412 5408 5406 5407 5413 5419 5425 5420 5404 5392 5380 5374 5377 5379 5384 5394 5393 5393 5393 5388 5380 5374 5370 5365 5357 5350 5341 5334 5326 5315 5305 5296 5287 5278 5269 5261 5253 5244 5233 5224
5451 5449 5453 5458 5447 5434 5417 5413 5411 5405 5403 5404 5400 5403 5397 5390 5388 5390 5392 5397 5397 5377 5366 5360 5356 5355 5357 5362 5367 5370 5371 5375 5374 5371 5363 5353 5344 5339 5331 5324 5316 5307 5299 5288 5278 5268 5260 5252 5244 5235 5225 5214 5209 5201
5431 5437 5432 5436 5424 5412 5401 5397 5400 5396 5396 5393 5393 5392 5389 5386 5378 5372 5369 5364 5346 5340 5342 5338 5335 5335 5337 5340 5340 5343 5343 5344 5343 5337 5330 5326 5319 5308 5300 5293 5287 5278 5271 5263 5254 5245 5235 5227 5219 5210 5202 5195 5191 5184
5424 5422 5408 5401 5396 5389 5376 5384 5386 5385 5383 5379 5377 5376 5373 5370 5363 5356 5338 5326 5314 5310 5315 5314 5312 5313 5314 5313 5318 5317 5316 5315 5310 5303 5296 5290 5284 5277 5272 5265 5259 5252 5244 5235 5228 5220 5211 5203 5194 5187 5181 5175 5169 5160
5409 5392 5380 5370 5367 5355 5355 5361 5370 5369 5367 5365 5362 5353 5353 5352 5342 5326 5307 5291 5285 5287 5294 5293 5297 5295 5292 5290 5285 5283 5282 5281 5278 5275 5270 5265 5258 5249 5243 5236 5228 5222 5215 5207 5199 5192 5185 5177 5172 5166 5159 5151 5144 5138
5373 5345 5344 5340 5342 5342 5333 5332 5331 5339 5336 5337 5336 5329 5334 5333 5313 5297 5284 5269 5262 5262 5265 5268 5267 5267 5264 5259 5257 5256 5255 5255 5251 5245 5238 5237 5230 5222 5214 5205 5197 5190 5185 5179 5172 5165 5160 5155 5149 5143 5138 5128 5128 5121
5348 5323 5325 5329 5327 5326 5317 5321 5312 5318 5305 5315 5320 5317 5310 5291 5273 5263 5259 5245 5241 5243 5243 5246 5245 5243 5239 5237 5234 5232 5229 5228 5226 5220 5210 5208 5204 5200 5193 5186 5177 5168 5163 5158 5151 5142 5137 5130 5123 5118 5112 5112 5108 5102
5318 5309 5316 5320 5319 5317 5312 5303 5301 5290 5286 5289 5295 5293 5280 5254 5245 5242 5236 5232 5229 5225 5226 5225 5226 5223 5219 5215 5211 5208 5206 5205 5201 5193 5186 5183 5179 5174 5166 5156 5150 5147 5144 5138 5130 5122 5115 5107 5101 5095 5089 5086 5082 5077
5299 5300 5296 5293 5284 5287 5272 5263 5263 5266 5263 5274 5264 5239 5220 5216 5222 5221 5218 5215 5211 5210 5207 5204 5202 5198 5194 5189 5186 5186 5183 5181 5177 5172 5167 5161 5156 5151 5146 5141 5137 5132 5126 5119 5112 5105 5098 5092 5085 5078 5071 5063 5060 5058
5285 5283 5274 5266 5259 5253 5256 5250 5249 5252 5250 5249 5218 5215 5207 5202 5197 5200 5199 5197 5196 5193 5190 5187 5180 5177 5173 5169 5166 5164 5163 5159 5152 5140 5129 5124 5122 5123 5122 5117 5112 5106 5101 5095 5091 5086 5081 5074 5068 5061 5053 5045 5043 5037
5254 5259 5251 5232 5233 5232 5226 5218 5218 5219 5225 5216 5211 5199 5191 5181 5178 5179 5180 5180 5177 5172 5169 5166 5161 5158 5151 5145 5140 5141 5138 5136 5131 5120 5107 5102 5102 5103 5099 5094 5089 5083 5079 5073 5068 5062 5057 5050 5043 5037 5030 5024 5015 5008
5247 5240 5230 5228 5224 5222 5212 5208 5209 5206 5196 5186 5181 5169 5167 5167 5161 5162 5162 5160 5157 5152 5151 5142 5140 5135 5136 5130 5120 5114 5113 5114 5111 5106 5101 5095 5090 5084 5079 5074 5069 5064 5058 5051 5045 5037 5031 5023 5015 5010 5006 5002 4995 4989
5221 5215 5218 5212 5210 5216 5209 5207 5207 5186 5171 5166 5164 5151 5152 5142 5136 5140 5141 5140 5139 5136 5130 5123 5121 5120 5118 5115 5112 5108 5105 5100 5096 5091 5086 5080 5074 5069 5063 5057 5051 5044 5036 5028 5021 5014 5007 5001 4996 4992 4988 4981 4975 4970
5205 5199 5190 5199 5202 5196 5185 5197 5184 5173 5159 5147 5152 5145 5136 5129 5125 5125 5126 5125 5120 5115 5114 5113 5113 5112 5109 5104 5100 5095 5092 5087 5083 5078 5074 5068 5061 5055 5049 5043 5036 5029 5021 5013 5005 4999 4992 4985 4976 4970 4966 4960 4955 4949